カタログに戻る

CZ-6A DEB

運用中PO
NORAD 61339·DEBRIS·🇨🇳 China

打ち上げ Aug 6, 2024 から Taiyuan Satellite Launch Center

Loading…

次のパス (今後24時間)

TLE

最新Source: Space-Track

元期: Sep 14, 2026, 10:07 UTC

1 61339U 24140VC  26257.42215096  .00000389  00000-0  84244-4 0  9990
2 61339  88.9738 257.6916 0108157 319.9834  39.3439 14.52681559107580

AllMySatでCZ-6A DEBをリアルタイム追跡

Download on the App Store